RYR7CS LFML-LEBL

Flight info

Callsign RYR7CS
Flight time 0h 42m
Altitude 27000
Route MAMES M984 BISBA
Aircraft B38M/M-SDE1FGHILORVWXY/HB1

Departure

Time 2026-05-07 10:46
Airport Marseille Provence Airport (LFML)

Arrival

Time 2026-05-07 11:28
Airport Josep Tarradellas Barcelona-El Prat Airport (LEBL)
Time Latitude Longitude Altitude Speed Heading
2026-05-07 10:22 43.43863 5.22305 40 ft 0 kts 74°
2026-05-07 10:26 43.43862 5.22305 40 ft 0 kts 74°
2026-05-07 10:39 43.43859 5.22291 40 ft 4 kts 75°
2026-05-07 10:39 43.43854 5.22255 36 ft 4 kts 81°
2026-05-07 10:39 43.43853 5.22223 36 ft 3 kts 104°
2026-05-07 10:39 43.43861 5.22204 38 ft 2 kts 137°
2026-05-07 10:40 43.43871 5.22193 39 ft 2 kts 147°
2026-05-07 10:40 43.43878 5.22187 38 ft 0 kts 148°
2026-05-07 10:42 43.43861 5.22199 38 ft 6 kts 157°
2026-05-07 10:43 43.43789 5.22232 38 ft 14 kts 169°
2026-05-07 10:43 43.43705 5.22155 40 ft 16 kts 232°
2026-05-07 10:43 43.43605 5.22140 38 ft 13 kts 149°
2026-05-07 10:43 43.43520 5.22208 40 ft 15 kts 149°
2026-05-07 10:44 43.43418 5.22281 40 ft 18 kts 162°
2026-05-07 10:44 43.43305 5.22367 40 ft 20 kts 134°
2026-05-07 10:44 43.43195 5.22495 40 ft 22 kts 163°
2026-05-07 10:44 43.43058 5.22423 39 ft 23 kts 250°
2026-05-07 10:45 43.43103 5.22301 40 ft 15 kts 315°
2026-05-07 10:45 43.43287 5.22046 39 ft 76 kts 314°
2026-05-07 10:45 43.43848 5.21249 40 ft 153 kts 314°
2026-05-07 10:45 43.44687 5.20049 534 ft 185 kts 313°
2026-05-07 10:46 43.45597 5.18749 1559 ft 195 kts 312°
2026-05-07 10:46 43.46538 5.17408 2588 ft 197 kts 311°
2026-05-07 10:46 43.47361 5.15860 3344 ft 207 kts 289°
2026-05-07 10:46 43.47437 5.13872 4340 ft 211 kts 253°
2026-05-07 10:47 43.47011 5.12688 5189 ft 209 kts 234°
2026-05-07 10:47 43.45854 5.11447 6112 ft 219 kts 205°
2026-05-07 10:47 43.44363 5.10842 7003 ft 224 kts 199°
2026-05-07 10:47 43.42859 5.10267 7950 ft 226 kts 199°
2026-05-07 10:48 43.41327 5.09690 8855 ft 229 kts 199°
2026-05-07 10:48 43.39778 5.09113 9794 ft 232 kts 199°
2026-05-07 10:48 43.38212 5.08519 10624 ft 238 kts 202°
2026-05-07 10:48 43.36719 5.07434 11251 ft 246 kts 219°
2026-05-07 10:49 43.35313 5.05998 11905 ft 259 kts 218°
2026-05-07 10:49 43.33796 5.04511 12480 ft 276 kts 217°
2026-05-07 10:49 43.32188 5.02951 12984 ft 295 kts 217°
2026-05-07 10:49 43.30448 5.01281 13436 ft 314 kts 217°
2026-05-07 10:50 43.28604 4.99522 13886 ft 331 kts 217°
2026-05-07 10:50 43.26668 4.97676 14368 ft 344 kts 217°
2026-05-07 10:50 43.24687 4.95789 15122 ft 347 kts 217°
2026-05-07 10:50 43.22702 4.93900 15967 ft 348 kts 217°
2026-05-07 10:51 43.20698 4.91993 16698 ft 353 kts 217°
2026-05-07 10:51 43.18697 4.90091 17471 ft 355 kts 217°
2026-05-07 10:51 43.16658 4.88154 18234 ft 358 kts 217°
2026-05-07 10:51 43.14602 4.86202 18889 ft 360 kts 217°
2026-05-07 10:52 43.12546 4.84251 19620 ft 360 kts 217°
2026-05-07 10:52 43.10492 4.82305 20309 ft 361 kts 217°
2026-05-07 10:52 43.08424 4.80347 21010 ft 361 kts 217°
2026-05-07 10:52 43.06351 4.78385 21713 ft 361 kts 217°
2026-05-07 10:53 43.04269 4.76444 22372 ft 362 kts 217°
2026-05-07 10:53 43.02176 4.74495 23035 ft 363 kts 217°
2026-05-07 10:53 43.00079 4.72544 23663 ft 364 kts 217°
2026-05-07 10:53 42.98004 4.70614 24172 ft 366 kts 217°
2026-05-07 10:54 42.95884 4.68644 24617 ft 369 kts 217°
2026-05-07 10:54 42.93756 4.66668 25084 ft 371 kts 217°
2026-05-07 10:54 42.91608 4.64676 25553 ft 373 kts 217°
2026-05-07 10:54 42.89449 4.62674 26003 ft 376 kts 217°
2026-05-07 10:55 42.87277 4.60663 26431 ft 379 kts 217°
2026-05-07 10:55 42.85111 4.58587 26851 ft 380 kts 221°
2026-05-07 10:55 42.83239 4.56048 26997 ft 384 kts 232°
2026-05-07 10:55 42.81816 4.52980 27001 ft 393 kts 240°
2026-05-07 10:56 42.80439 4.49707 27000 ft 401 kts 239°
2026-05-07 10:56 42.79014 4.46392 27002 ft 408 kts 239°
2026-05-07 10:56 42.77562 4.43048 27015 ft 412 kts 239°
2026-05-07 10:56 42.76098 4.39686 27009 ft 413 kts 239°
2026-05-07 10:57 42.74632 4.36327 27007 ft 413 kts 239°
2026-05-07 10:57 42.73163 4.32962 27022 ft 413 kts 239°
2026-05-07 10:57 42.71711 4.29640 27010 ft 412 kts 239°
2026-05-07 10:57 42.70246 4.26292 27027 ft 412 kts 239°
2026-05-07 10:58 42.68775 4.22938 27020 ft 412 kts 239°
2026-05-07 10:58 42.67306 4.19588 27012 ft 412 kts 239°
2026-05-07 10:58 42.65835 4.16241 27015 ft 412 kts 238°
2026-05-07 10:58 42.64361 4.12887 27025 ft 412 kts 239°
2026-05-07 10:59 42.62890 4.09546 27016 ft 412 kts 238°
2026-05-07 10:59 42.61417 4.06206 27012 ft 413 kts 238°
2026-05-07 10:59 42.59938 4.02853 27017 ft 412 kts 238°
2026-05-07 10:59 42.58482 3.99554 27022 ft 412 kts 238°
2026-05-07 11:00 42.57004 3.96213 27015 ft 412 kts 238°
2026-05-07 11:00 42.55526 3.92873 27017 ft 413 kts 238°
2026-05-07 11:00 42.54046 3.89534 27020 ft 412 kts 238°
2026-05-07 11:00 42.52566 3.86202 27018 ft 412 kts 238°
2026-05-07 11:01 42.51089 3.82876 27016 ft 412 kts 238°
2026-05-07 11:01 42.49612 3.79553 27023 ft 412 kts 238°
2026-05-07 11:01 42.48131 3.76229 27018 ft 412 kts 238°
2026-05-07 11:01 42.46652 3.72912 27017 ft 412 kts 238°
2026-05-07 11:02 42.45170 3.69589 27020 ft 412 kts 238°
2026-05-07 11:02 42.43708 3.66315 27019 ft 412 kts 238°
2026-05-07 11:02 42.42221 3.62990 27017 ft 412 kts 238°
2026-05-07 11:02 42.40740 3.59682 27017 ft 412 kts 238°
2026-05-07 11:03 42.39251 3.56359 27016 ft 412 kts 238°
2026-05-07 11:03 42.37766 3.53049 27016 ft 412 kts 238°
2026-05-07 11:03 42.36274 3.49729 27022 ft 412 kts 238°
2026-05-07 11:03 42.34787 3.46423 27017 ft 411 kts 238°
2026-05-07 11:04 42.33295 3.43109 27020 ft 411 kts 238°
2026-05-07 11:04 42.31822 3.39840 27015 ft 411 kts 238°
2026-05-07 11:04 42.30331 3.36533 27052 ft 412 kts 238°
2026-05-07 11:04 42.28840 3.33235 27024 ft 411 kts 238°
2026-05-07 11:05 42.27348 3.29935 27021 ft 411 kts 238°
2026-05-07 11:05 42.25859 3.26645 27024 ft 411 kts 238°
2026-05-07 11:05 42.24367 3.23353 27004 ft 412 kts 238°
2026-05-07 11:05 42.22865 3.20044 27021 ft 412 kts 238°
2026-05-07 11:06 42.21363 3.16736 27007 ft 412 kts 238°
2026-05-07 11:06 42.19882 3.13478 27005 ft 412 kts 238°
2026-05-07 11:06 42.18379 3.10178 27001 ft 413 kts 238°
2026-05-07 11:06 42.16881 3.06889 26392 ft 411 kts 238°
2026-05-07 11:07 42.15373 3.03585 25990 ft 413 kts 238°
2026-05-07 11:07 42.13872 3.00299 25455 ft 408 kts 238°
2026-05-07 11:07 42.12392 2.97062 24855 ft 399 kts 238°
2026-05-07 11:07 42.10958 2.93928 24229 ft 398 kts 238°
2026-05-07 11:08 42.09497 2.90740 23596 ft 399 kts 238°
2026-05-07 11:08 42.08037 2.87557 22866 ft 398 kts 238°
2026-05-07 11:08 42.06581 2.84385 22210 ft 398 kts 238°
2026-05-07 11:08 42.05124 2.81214 21607 ft 398 kts 238°
2026-05-07 11:09 42.03668 2.78049 20998 ft 397 kts 238°
2026-05-07 11:09 42.02208 2.74880 20387 ft 397 kts 239°
2026-05-07 11:09 42.00773 2.71766 19804 ft 397 kts 239°
2026-05-07 11:09 41.99316 2.68612 19211 ft 397 kts 239°
2026-05-07 11:10 41.97857 2.65452 18630 ft 396 kts 239°
2026-05-07 11:10 41.96402 2.62306 18013 ft 396 kts 239°
2026-05-07 11:10 41.94944 2.59160 17376 ft 395 kts 239°
2026-05-07 11:10 41.93490 2.56024 16790 ft 393 kts 239°
2026-05-07 11:11 41.92046 2.52910 16230 ft 390 kts 239°
2026-05-07 11:11 41.90612 2.49823 15666 ft 389 kts 239°
2026-05-07 11:11 41.89178 2.46740 15113 ft 388 kts 239°
2026-05-07 11:11 41.87750 2.43671 14562 ft 387 kts 239°
2026-05-07 11:12 41.86324 2.40609 14005 ft 385 kts 239°
2026-05-07 11:12 41.84767 2.37692 13391 ft 385 kts 228°
2026-05-07 11:12 41.82697 2.35508 12758 ft 385 kts 212°
2026-05-07 11:12 41.80389 2.33709 12124 ft 381 kts 212°
2026-05-07 11:13 41.78104 2.31898 11483 ft 378 kts 213°
2026-05-07 11:13 41.75869 2.30112 11130 ft 367 kts 213°
2026-05-07 11:13 41.73736 2.28407 11154 ft 352 kts 213°
2026-05-07 11:13 41.71686 2.26765 11158 ft 333 kts 213°
2026-05-07 11:14 41.69750 2.25216 11159 ft 315 kts 213°
2026-05-07 11:14 41.67920 2.23749 11163 ft 299 kts 213°
2026-05-07 11:14 41.66154 2.22332 11129 ft 296 kts 213°
2026-05-07 11:14 41.64385 2.20912 11079 ft 296 kts 213°
2026-05-07 11:15 41.62621 2.19495 11041 ft 296 kts 213°
2026-05-07 11:15 41.60854 2.18078 10991 ft 296 kts 214°
2026-05-07 11:15 41.59094 2.16666 10939 ft 295 kts 213°
2026-05-07 11:15 41.57331 2.15253 10894 ft 296 kts 214°
2026-05-07 11:16 41.55568 2.13840 10833 ft 295 kts 213°
2026-05-07 11:16 41.53893 2.12274 10788 ft 292 kts 226°
2026-05-07 11:16 41.52542 2.10264 10741 ft 288 kts 231°
2026-05-07 11:16 41.51241 2.08310 10675 ft 275 kts 230°
2026-05-07 11:17 41.49988 2.06451 10557 ft 264 kts 230°
2026-05-07 11:17 41.48779 2.04671 10430 ft 253 kts 230°
2026-05-07 11:17 41.47609 2.02962 10300 ft 245 kts 230°
2026-05-07 11:17 41.46458 2.01286 10162 ft 244 kts 230°
2026-05-07 11:18 41.45324 1.99641 10029 ft 244 kts 230°
2026-05-07 11:18 41.44161 1.97955 9883 ft 243 kts 230°
2026-05-07 11:18 41.43027 1.96312 9726 ft 243 kts 230°
2026-05-07 11:18 41.41876 1.94649 9424 ft 244 kts 230°
2026-05-07 11:19 41.40729 1.92991 9076 ft 243 kts 230°
2026-05-07 11:19 41.39582 1.91334 8728 ft 243 kts 229°
2026-05-07 11:19 41.38434 1.89677 8381 ft 243 kts 230°
2026-05-07 11:19 41.37288 1.88026 8030 ft 242 kts 229°
2026-05-07 11:20 41.36146 1.86378 7701 ft 242 kts 229°
2026-05-07 11:20 41.35003 1.84736 7365 ft 242 kts 227°
2026-05-07 11:20 41.33605 1.83481 7017 ft 246 kts 205°
2026-05-07 11:20 41.32002 1.82674 6684 ft 245 kts 202°
2026-05-07 11:21 41.30421 1.81923 6349 ft 238 kts 201°
2026-05-07 11:21 41.28880 1.81187 5997 ft 231 kts 201°
2026-05-07 11:21 41.27379 1.80476 5567 ft 228 kts 202°
2026-05-07 11:21 41.25905 1.79778 5162 ft 224 kts 202°
2026-05-07 11:22 41.24482 1.79106 5083 ft 206 kts 201°
2026-05-07 11:22 41.23152 1.78525 4863 ft 207 kts 192°
2026-05-07 11:22 41.21705 1.78758 4414 ft 210 kts 155°
2026-05-07 11:22 41.20694 1.80011 4188 ft 195 kts 117°
2026-05-07 11:23 41.20475 1.81761 3990 ft 195 kts 78°
2026-05-07 11:23 41.21052 1.83356 3817 ft 193 kts 54°
2026-05-07 11:23 41.21758 1.84880 3596 ft 193 kts 60°
2026-05-07 11:23 41.22367 1.86472 3357 ft 192 kts 63°
2026-05-07 11:24 41.22931 1.88082 3125 ft 191 kts 65°
2026-05-07 11:24 41.23471 1.89662 2876 ft 183 kts 65°
2026-05-07 11:24 41.23970 1.91118 2656 ft 169 kts 66°
2026-05-07 11:24 41.24456 1.92538 2457 ft 168 kts 66°
2026-05-07 11:25 41.24942 1.93953 2229 ft 168 kts 66°
2026-05-07 11:25 41.25426 1.95364 2007 ft 167 kts 67°
2026-05-07 11:25 41.25905 1.96761 1782 ft 166 kts 67°
2026-05-07 11:25 41.26384 1.98158 1546 ft 166 kts 67°
2026-05-07 11:26 41.26860 1.99545 1323 ft 161 kts 66°
2026-05-07 11:26 41.27301 2.00832 1107 ft 148 kts 67°
2026-05-07 11:26 41.27721 2.02057 904 ft 143 kts 69°
2026-05-07 11:26 41.28130 2.03253 705 ft 141 kts 67°
2026-05-07 11:27 41.28524 2.04409 518 ft 139 kts 67°
2026-05-07 11:27 41.28928 2.05583 329 ft 138 kts 68°
2026-05-07 11:27 41.29321 2.06747 143 ft 138 kts 68°
2026-05-07 11:27 41.29720 2.07891 32 ft 132 kts 67°
2026-05-07 11:28 41.30060 2.08889 22 ft 97 kts 65°
2026-05-07 11:28 41.30254 2.09376 20 ft 37 kts 47°
2026-05-07 11:28 41.30361 2.09500 20 ft 23 kts 34°
2026-05-07 11:28 41.30438 2.09545 20 ft 7 kts 344°
2026-05-07 11:29 41.30489 2.09507 22 ft 11 kts 322°
2026-05-07 11:29 41.30479 2.09376 24 ft 21 kts 246°
2026-05-07 11:29 41.30432 2.09239 23 ft 28 kts 245°
2026-05-07 11:29 41.30337 2.08962 22 ft 36 kts 246°
2026-05-07 11:30 41.30195 2.08548 24 ft 38 kts 245°
2026-05-07 11:30 41.30122 2.08337 24 ft 28 kts 245°
2026-05-07 11:30 41.30124 2.08213 21 ft 10 kts 333°
2026-05-07 11:30 41.30190 2.08155 21 ft 12 kts 286°
2026-05-07 11:31 41.30163 2.08046 22 ft 14 kts 251°
2026-05-07 11:31 41.30186 2.07973 22 ft 4 kts 348°
2026-05-07 11:31 41.30215 2.07977 23 ft 5 kts 13°
2026-05-07 11:31 41.30226 2.07981 27 ft 0 kts 15°